Regional Weather Roundup
Issued by NWS

Home | Current Version | Previous Version | Graphics & Text | Print | Product List | Glossary On
Versions: 1 2 3 4 5 6 7 8 9 10 11 12 13 14 15 16 17 18 19 20 21 22 23 24 25 26 27 28 29 30 31 32 33 34 35 36 37 38 39 40 41 42 43 44 45 46 47 48 49 50
000
ASUS44 KMEG 292210
RWRTN
TENNESSEE HOURLY STATE WEATHER ROUNDUP
NATIONAL WEATHER SERVICE MEMPHIS TN
500 PM CDT SAT AUG 29 2015

TNZ002-004-019-021-049-052-054-088>092-292300-
WEST TENNESSEE

CITY           SKY/WX    TMP DP  RH WIND       PRES   REMARKS
MEMPHIS INTL   MOSUNNY   91  59  33 SW8       29.99F HX  90
NWS MEMPHIS      N/A    N/A N/A N/A MISG        N/A
JACKSON        MOSUNNY   87  67  51 S7        30.00F HX  90
DYERSBURG      PTSUNNY  N/A N/A N/A MISG        N/A
UNION CITY     MOSUNNY   88  70  55 W7        29.99S HX  92
PARIS          PTSUNNY   90  63  40 VRB3      30.01F HX  90
LEXINGTON      SUNNY     88  63  42 S5        30.01F
$$

TNZ008-025-027-028-033-062-065-066-292300-
NORTH MIDDLE TENNESSEE

CITY           SKY/WX    TMP DP  RH WIND       PRES   REMARKS
NASHVILLE      CLOUDY    80  68  66 S10       30.07S
CLARKSVILLE    PTSUNNY   89  63  41 VRB3      30.01F HX  90
SMYRNA         CLOUDY    79  68  69 S6        30.08F
COOKEVILLE     MOSUNNY   82  72  69 CALM      30.09S
CROSSVILLE     MOSUNNY   79  64  60 S8        30.15F
$$

TNZ061-075-076-078-094-096-097-292300-
SOUTH MIDDLE TENNESSEE

CITY           SKY/WX    TMP DP  RH WIND       PRES   REMARKS
FAYETTEVILLE   CLOUDY    70  68  94 CALM      30.12F
TULLAHOMA      PTSUNNY   72  66  83 SW5       30.13R
WINCHESTER     PTSUNNY   72  70  94 CALM      30.13R
MCMINNVILLE    CLOUDY    73  70  88 N13       30.12R
COLUMBIA       SUNNY     79  73  83 S7        30.07S
SHELBYVILLE    SUNNY     75  72  88 SE3       30.11S
$$

TNZ017-018-042-046-047-292300-
NORTHEAST TENNESSEE

CITY           SKY/WX    TMP DP  RH WIND       PRES   REMARKS
TRI CITIES     CLOUDY    79  66  64 CALM      30.15F
ELIZABETHTON   CLEAR     79  64  61 CALM      30.16F
$$

TNZ012-013-036-069-073-074-292300-
CENTRAL EAST TENNESSEE

CITY           SKY/WX    TMP DP  RH WIND       PRES   REMARKS
KNOXVILLE      PTSUNNY   89  71  55 NE7       30.09F HX  95
OAK RIDGE      MOSUNNY   85  63  47 CALM      30.11F
GATLINBURG     PTCLDY    84  55  37 E6        30.10F
MORRISTOWN     CLEAR     82  61  47 CALM      30.14S
$$

TNZ083-085-099-292300-
SOUTHEAST TENNESSEE

CITY           SKY/WX    TMP DP  RH WIND       PRES   REMARKS
CHATTANOOGA    PTSUNNY   83  64  52 SE6       30.10S
$$

SKY/WX REPORTED AS FAIR MEANS FEW OR NO CLOUDS BELOW
12 THOUSAND FEET.



USA.gov is the U.S. government's official web portal to all federal, state and local government web resources and services.